Location: Oberwesel
(50.1000°N, 7.7333°E)
Time: 01:25:02
(UTC+01:00)

ISS - Visible Passes

Search period start: 17 December 2025 00:00
Search period end: 27 December 2025 00:00
Orbit: 416 x 420 km, 51.6° (Epoch: 16 December)

Date Brightness Start Highest point End Pass type
(mag) Time Alt. Az. Time Alt. Az. Time Alt. Az.
17 Dec -1.7 05:41:19 23° SSE 05:41:36 23° SE 05:44:21 10° E visible
17 Dec -3.7 07:14:40 10° WSW 07:18:03 84° SSE 07:21:26 10° ENE visible
18 Dec -0.2 04:55:42 11° ESE 04:55:42 11° ESE 04:55:54 10° E visible
18 Dec -3.5 06:28:39 32° SW 06:30:02 65° SSE 06:33:23 10° ENE visible
19 Dec -2.3 05:42:51 37° ESE 05:42:51 37° ESE 05:45:18 10° ENE visible
19 Dec -3.7 07:15:48 13° W 07:18:46 70° N 07:22:08 10° ENE visible
20 Dec -0.2 04:56:56 11° E 04:56:56 11° E 04:57:08 10° E visible
20 Dec -3.9 06:29:52 49° W 06:30:40 81° NNW 06:34:03 10° ENE visible
21 Dec -2.2 05:43:50 36° ENE 05:43:50 36° ENE 05:45:58 10° ENE visible
21 Dec -3.7 07:16:46 15° W 07:19:28 65° N 07:22:50 10° E visible
22 Dec -0.2 04:57:45 11° ENE 04:57:45 11° ENE 04:57:51 10° ENE visible
22 Dec -3.7 06:30:40 50° WNW 06:31:20 66° N 06:34:42 10° E visible
23 Dec -2.1 05:44:31 33° ENE 05:44:31 33° ENE 05:46:34 10° ENE visible
23 Dec -3.8 07:17:27 15° WNW 07:20:06 78° N 07:23:29 10° E visible
24 Dec -0.2 04:58:20 11° ENE 04:58:20 11° ENE 04:58:25 10° ENE visible
24 Dec -3.7 06:31:16 50° NW 06:31:57 69° N 06:35:19 10° E visible
25 Dec -2.1 05:45:03 34° ENE 05:45:03 34° ENE 05:47:08 10° E visible
25 Dec -3.6 07:17:58 15° WNW 07:20:37 69° SSW 07:23:58 10° ESE visible
26 Dec -0.2 04:58:50 11° E 04:58:50 11° E 04:58:57 10° E visible
26 Dec -3.8 06:31:45 52° WNW 06:32:29 89° SSW 06:35:52 10° ESE visible
